PIMOHWEATHER Station Historical Data
Daily Summary for February 25, 2020 Units:  Metric    English   Both
Daily Weekly Monthly Yearly
  High: Low: Average:
Temperature: 33.0 °C 24.0 °C 28.1 °C
Dew Point: 23.0 °C 20.0 °C 21.8 °C
Humidity: 86% 51% 70%
Wind Speed: 27km/h 0km/h 9.8km/h
Wind Gust: 32km/h - -
Wind- - East
Pressure: 1013.9 hPa 1009.8 hPa -
Precipitation: 0.00 mm    
 
 
Tabular Data for February 25, 2020
Time Temperature Dew Point Pressure Wind Wind Speed Wind Gust Humidity Rainfall Rate (Hourly) solar
00:04 26.0 °C 22.0 °C 1012.9 hPa North 3 km/h 4 km/h 81% 0.00 mm 0.00 W/m2
00:09 26.0 °C 22.0 °C 1013.2 hPa WNW 3 km/h 4 km/h 81% 0.00 mm 0.00 W/m2
00:14 26.0 °C 22.0 °C 1012.9 hPa North 5 km/h 8 km/h 81% 0.00 mm 0.00 W/m2
00:19 26.0 °C 22.0 °C 1012.9 hPa North 5 km/h 8 km/h 81% 0.00 mm 0.00 W/m2
00:24 26.0 °C 22.0 °C 1012.9 hPa North 3 km/h 4 km/h 81% 0.00 mm 0.00 W/m2
00:29 26.0 °C 22.0 °C 1012.5 hPa North 3 km/h 4 km/h 81% 0.00 mm 0.00 W/m2
00:34 26.0 °C 22.0 °C 1012.5 hPa Calm     81% 0.00 mm 0.00 W/m2
00:39 26.0 °C 22.0 °C 1012.2 hPa Calm     81% 0.00 mm 0.00 W/m2
00:44 26.0 °C 22.0 °C 1012.2 hPa Calm     81% 0.00 mm 0.00 W/m2
00:49 26.0 °C 22.0 °C 1012.2 hPa Calm     81% 0.00 mm 0.00 W/m2
00:54 26.0 °C 22.0 °C 1012.2 hPa Calm     80% 0.00 mm 0.00 W/m2
00:59 26.0 °C 22.0 °C 1012.2 hPa East 1 km/h 4 km/h 79% 0.00 mm 0.00 W/m2
01:04 26.0 °C 22.0 °C 1012.2 hPa ESE 3 km/h 4 km/h 77% 0.00 mm 0.00 W/m2
01:09 26.0 °C 22.0 °C 1012.2 hPa Calm     76% 0.00 mm 0.00 W/m2
01:14 26.0 °C 22.0 °C 1012.2 hPa Calm     76% 0.00 mm 0.00 W/m2
01:19 26.0 °C 22.0 °C 1011.9 hPa Calm     76% 0.00 mm 0.00 W/m2
01:24 26.0 °C 22.0 °C 1011.9 hPa NW 5 km/h 8 km/h 80% 0.00 mm 0.00 W/m2
01:29 26.0 °C 22.0 °C 1011.9 hPa NW 7 km/h 8 km/h 81% 0.00 mm 0.00 W/m2
01:34 25.0 °C 22.0 °C 1011.9 hPa NW 8 km/h 8 km/h 82% 0.00 mm 0.00 W/m2
01:39 25.0 °C 22.0 °C 1011.9 hPa NW 8 km/h 8 km/h 82% 0.00 mm 0.00 W/m2
01:44 25.0 °C 22.0 °C 1011.5 hPa NW 4 km/h 8 km/h 82% 0.00 mm 0.00 W/m2
01:49 25.0 °C 22.0 °C 1011.9 hPa NW 3 km/h 4 km/h 81% 0.00 mm 0.00 W/m2
01:54 25.0 °C 22.0 °C 1011.9 hPa NNW 5 km/h 8 km/h 81% 0.00 mm 0.00 W/m2
01:59 26.0 °C 22.0 °C 1011.9 hPa NNW 5 km/h 8 km/h 81% 0.00 mm 0.00 W/m2
02:04 26.0 °C 22.0 °C 1011.9 hPa North 5 km/h 8 km/h 81% 0.00 mm 0.00 W/m2
02:09 26.0 °C 22.0 °C 1011.5 hPa NNW 5 km/h 8 km/h 81% 0.00 mm 0.00 W/m2
02:14 26.0 °C 22.0 °C 1011.5 hPa North 5 km/h 8 km/h 80% 0.00 mm 0.00 W/m2
02:19 26.0 °C 22.0 °C 1011.9 hPa North 6 km/h 8 km/h 80% 0.00 mm 0.00 W/m2
02:24 26.0 °C 22.0 °C 1011.9 hPa North 7 km/h 8 km/h 80% 0.00 mm 0.00 W/m2
02:29 26.0 °C 22.0 °C 1011.9 hPa NNE 5 km/h 8 km/h 80% 0.00 mm 0.00 W/m2
02:34 26.0 °C 22.0 °C 1011.9 hPa NNE 6 km/h 8 km/h 81% 0.00 mm 0.00 W/m2
02:39 25.0 °C 22.0 °C 1011.5 hPa NNE 1 km/h 4 km/h 81% 0.00 mm 0.00 W/m2
02:44 25.0 °C 22.0 °C 1011.5 hPa NNE 4 km/h 4 km/h 81% 0.00 mm 0.00 W/m2
02:49 25.0 °C 22.0 °C 1011.5 hPa NNE 3 km/h 4 km/h 81% 0.00 mm 0.00 W/m2
02:54 25.0 °C 22.0 °C 1011.5 hPa North 4 km/h 4 km/h 81% 0.00 mm 0.00 W/m2
02:59 25.0 °C 22.0 °C 1011.9 hPa NNE 4 km/h 8 km/h 81% 0.00 mm 0.00 W/m2
03:04 25.0 °C 22.0 °C 1011.5 hPa North 1 km/h 4 km/h 81% 0.00 mm 0.00 W/m2
03:09 25.0 °C 22.0 °C 1011.5 hPa Calm     81% 0.00 mm 0.00 W/m2
03:14 25.0 °C 22.0 °C 1011.9 hPa NNE 1 km/h 4 km/h 81% 0.00 mm 0.00 W/m2
03:19 25.0 °C 22.0 °C 1011.9 hPa North 5 km/h 8 km/h 81% 0.00 mm 0.00 W/m2
03:24 25.0 °C 22.0 °C 1011.5 hPa NNE 5 km/h 8 km/h 81% 0.00 mm 0.00 W/m2
03:29 25.0 °C 22.0 °C 1011.5 hPa NNE 2 km/h 4 km/h 81% 0.00 mm 0.00 W/m2
03:34 26.0 °C 22.0 °C 1011.5 hPa Calm     82% 0.00 mm 0.00 W/m2
03:39 26.0 °C 22.0 °C 1011.5 hPa Calm     81% 0.00 mm 0.00 W/m2
03:44 25.0 °C 22.0 °C 1011.5 hPa Calm     81% 0.00 mm 0.00 W/m2
03:49 25.0 °C 22.0 °C 1011.5 hPa West 1 km/h 4 km/h 82% 0.00 mm 0.00 W/m2
03:54 25.0 °C 22.0 °C 1011.9 hPa NW 4 km/h 4 km/h 83% 0.00 mm 0.00 W/m2
03:59 25.0 °C 22.0 °C 1011.9 hPa Calm     83% 0.00 mm 0.00 W/m2
04:04 25.0 °C 22.0 °C 1011.5 hPa Calm     83% 0.00 mm 0.00 W/m2
04:09 25.0 °C 22.0 °C 1011.5 hPa NNE 3 km/h 4 km/h 83% 0.00 mm 0.00 W/m2
04:14 25.0 °C 22.0 °C 1011.9 hPa NNW 4 km/h 4 km/h 83% 0.00 mm 0.00 W/m2
04:19 25.0 °C 22.0 °C 1011.9 hPa North 4 km/h 4 km/h 84% 0.00 mm 0.00 W/m2
04:24 25.0 °C 22.0 °C 1011.9 hPa NW 5 km/h 8 km/h 84% 0.00 mm 0.00 W/m2
04:29 25.0 °C 22.0 °C 1011.9 hPa NW 7 km/h 8 km/h 84% 0.00 mm 0.00 W/m2
04:34 25.0 °C 22.0 °C 1011.9 hPa NNW 6 km/h 8 km/h 84% 0.00 mm 0.00 W/m2
04:39 25.0 °C 22.0 °C 1011.9 hPa NNW 5 km/h 8 km/h 85% 0.00 mm 0.00 W/m2
04:44 25.0 °C 22.0 °C 1011.9 hPa North 6 km/h 8 km/h 85% 0.00 mm 0.00 W/m2
04:49 24.0 °C 22.0 °C 1011.9 hPa North 7 km/h 8 km/h 85% 0.00 mm 0.00 W/m2
04:54 24.0 °C 22.0 °C 1012.2 hPa North 5 km/h 8 km/h 86% 0.00 mm 0.00 W/m2
04:59 24.0 °C 22.0 °C 1012.2 hPa NNE 3 km/h 4 km/h 86% 0.00 mm 0.00 W/m2
05:04 24.0 °C 22.0 °C 1011.9 hPa North 6 km/h 8 km/h 86% 0.00 mm 0.00 W/m2
05:09 24.0 °C 22.0 °C 1011.9 hPa North 8 km/h 12 km/h 85% 0.00 mm 0.00 W/m2
05:14 24.0 °C 22.0 °C 1012.2 hPa North 5 km/h 12 km/h 86% 0.00 mm 0.00 W/m2
05:19 24.0 °C 22.0 °C 1012.2 hPa NNW 4 km/h 4 km/h 86% 0.00 mm 0.00 W/m2
05:24 24.0 °C 22.0 °C 1012.2 hPa NNW 3 km/h 4 km/h 86% 0.00 mm 0.00 W/m2
05:29 25.0 °C 22.0 °C 1012.5 hPa NNE 5 km/h 8 km/h 86% 0.00 mm 0.00 W/m2
05:34 25.0 °C 22.0 °C 1012.5 hPa NNE 4 km/h 8 km/h 86% 0.00 mm 0.00 W/m2
05:39 25.0 °C 22.0 °C 1012.5 hPa NNE 10 km/h 12 km/h 86% 0.00 mm 0.00 W/m2
05:44 24.0 °C 22.0 °C 1012.5 hPa North 7 km/h 8 km/h 86% 0.00 mm 0.00 W/m2
05:49 24.0 °C 22.0 °C 1012.9 hPa NNE 10 km/h 12 km/h 86% 0.00 mm 0.00 W/m2
05:54 24.0 °C 22.0 °C 1012.5 hPa North 4 km/h 8 km/h 86% 0.00 mm 0.00 W/m2
05:59 24.0 °C 22.0 °C 1012.5 hPa North 5 km/h 8 km/h 86% 0.00 mm 0.00 W/m2
06:04 24.0 °C 22.0 °C 1012.5 hPa Calm     86% 0.00 mm 0.00 W/m2
06:09 24.0 °C 22.0 °C 1012.9 hPa Calm     86% 0.00 mm 0.00 W/m2
06:14 25.0 °C 22.0 °C 1012.9 hPa NNE 2 km/h 4 km/h 86% 0.00 mm 0.36 W/m2
06:19 25.0 °C 22.0 °C 1012.9 hPa Calm     85% 0.00 mm 2.99 W/m2
06:24 25.0 °C 22.0 °C 1012.9 hPa Calm     85% 0.00 mm 6.01 W/m2
06:29 25.0 °C 22.0 °C 1012.9 hPa Calm     85% 0.00 mm 9.43 W/m2
06:34 25.0 °C 22.0 °C 1012.9 hPa North 5 km/h 8 km/h 86% 0.00 mm 16.11 W/m2
06:39 25.0 °C 22.0 °C 1012.9 hPa North 2 km/h 4 km/h 86% 0.00 mm 18.47 W/m2
06:44 25.0 °C 22.0 °C 1012.9 hPa Calm     86% 0.00 mm 24.58 W/m2
06:49 25.0 °C 22.0 °C 1012.9 hPa Calm     85% 0.00 mm 29.04 W/m2
06:54 25.0 °C 22.0 °C 1012.9 hPa Calm   4 km/h 85% 0.00 mm 32.81 W/m2
06:59 25.0 °C 22.0 °C 1012.9 hPa NNW 5 km/h 8 km/h 84% 0.00 mm 37.48 W/m2
07:04 25.0 °C 22.0 °C 1013.2 hPa NNW 5 km/h 8 km/h 85% 0.00 mm 39.99 W/m2
07:09 25.0 °C 22.0 °C 1012.9 hPa North 5 km/h 8 km/h 85% 0.00 mm 54.27 W/m2
07:14 25.0 °C 22.0 °C 1013.2 hPa NNE 3 km/h 4 km/h 84% 0.00 mm 61.87 W/m2
07:19 25.0 °C 22.0 °C 1013.2 hPa North 7 km/h 8 km/h 84% 0.00 mm 69.69 W/m2
07:24 26.0 °C 22.0 °C 1013.2 hPa North 5 km/h 12 km/h 82% 0.00 mm 75.88 W/m2
07:29 26.0 °C 22.0 °C 1013.6 hPa North 8 km/h 12 km/h 81% 0.00 mm 82.55 W/m2
07:34 26.0 °C 22.0 °C 1013.6 hPa NNE 8 km/h 8 km/h 80% 0.00 mm 89.47 W/m2
07:39 26.0 °C 22.0 °C 1013.6 hPa NNE 8 km/h 8 km/h 79% 0.00 mm 99.60 W/m2
07:44 26.0 °C 23.0 °C 1013.6 hPa North 9 km/h 12 km/h 79% 0.00 mm 108.80 W/m2
07:49 27.0 °C 23.0 °C 1013.6 hPa NNE 10 km/h 12 km/h 79% 0.00 mm 117.54 W/m2
07:54 27.0 °C 23.0 °C 1013.6 hPa NNW 11 km/h 12 km/h 79% 0.00 mm 125.83 W/m2
07:59 27.0 °C 23.0 °C 1013.6 hPa North 10 km/h 16 km/h 79% 0.00 mm 134.93 W/m2
08:04 27.0 °C 23.0 °C 1013.6 hPa North 12 km/h 16 km/h 79% 0.00 mm 146.82 W/m2
08:09 27.0 °C 23.0 °C 1013.6 hPa North 8 km/h 8 km/h 79% 0.00 mm 157.52 W/m2
08:14 27.0 °C 23.0 °C 1013.6 hPa North 9 km/h 12 km/h 78% 0.00 mm 173.27 W/m2
08:19 27.0 °C 23.0 °C 1013.6 hPa North 5 km/h 8 km/h 77% 0.00 mm 186.88 W/m2
08:24 28.0 °C 23.0 °C 1013.6 hPa NNE 7 km/h 8 km/h 76% 0.00 mm 195.05 W/m2
08:29 29.0 °C 23.0 °C 1013.6 hPa NNE 10 km/h 12 km/h 73% 0.00 mm 208.77 W/m2
08:34 29.0 °C 23.0 °C 1013.6 hPa North 10 km/h 12 km/h 73% 0.00 mm 214.33 W/m2
08:39 29.0 °C 23.0 °C 1013.6 hPa ESE 6 km/h 8 km/h 71% 0.00 mm 232.58 W/m2
08:44 30.0 °C 23.0 °C 1013.6 hPa East 9 km/h 12 km/h 69% 0.00 mm 239.51 W/m2
08:49 30.0 °C 23.0 °C 1013.6 hPa East 5 km/h 8 km/h 66% 0.00 mm 253.11 W/m2
08:54 30.0 °C 23.0 °C 1013.6 hPa East 11 km/h 20 km/h 67% 0.00 mm 260.13 W/m2
08:59 30.0 °C 23.0 °C 1013.6 hPa NE 14 km/h 16 km/h 68% 0.00 mm 274.35 W/m2
09:04 30.0 °C 23.0 °C 1013.6 hPa NNE 16 km/h 20 km/h 66% 0.00 mm 290.49 W/m2
09:09 31.0 °C 23.0 °C 1013.6 hPa SE 8 km/h 12 km/h 64% 0.00 mm 297.44 W/m2
09:14 31.0 °C 23.0 °C 1013.6 hPa NE 9 km/h 12 km/h 64% 0.00 mm 313.57 W/m2
09:19 31.0 °C 23.0 °C 1013.6 hPa NE 8 km/h 12 km/h 63% 0.00 mm 321.74 W/m2
09:24 31.0 °C 23.0 °C 1013.9 hPa East 9 km/h 12 km/h 63% 0.00 mm 333.24 W/m2
09:29 31.0 °C 23.0 °C 1013.9 hPa SSW 10 km/h 12 km/h 63% 0.00 mm 357.80 W/m2
09:34 30.0 °C 23.0 °C 1013.6 hPa South 11 km/h 12 km/h 63% 0.00 mm 403.07 W/m2
09:39 30.0 °C 22.0 °C 1013.6 hPa NNE 16 km/h 20 km/h 64% 0.00 mm 409.92 W/m2
09:44 31.0 °C 23.0 °C 1013.6 hPa NE 20 km/h 24 km/h 64% 0.00 mm 442.75 W/m2
09:49 31.0 °C 22.0 °C 1013.6 hPa ENE 8 km/h 12 km/h 62% 0.00 mm 451.98 W/m2
09:54 32.0 °C 23.0 °C 1013.6 hPa ENE 10 km/h 16 km/h 59% 0.00 mm 459.66 W/m2
09:59 32.0 °C 22.0 °C 1013.6 hPa ESE 20 km/h 32 km/h 59% 0.00 mm 443.73 W/m2
10:04 31.0 °C 22.0 °C 1013.6 hPa SE 21 km/h 28 km/h 59% 0.00 mm 482.83 W/m2
10:09 31.0 °C 22.0 °C 1013.6 hPa SE 13 km/h 16 km/h 59% 0.00 mm 482.24 W/m2
10:14 32.0 °C 22.0 °C 1013.6 hPa East 16 km/h 24 km/h 58% 0.00 mm 466.17 W/m2
10:19 32.0 °C 22.0 °C 1013.2 hPa East 18 km/h 20 km/h 56% 0.00 mm 447.16 W/m2
10:24 33.0 °C 22.0 °C 1013.2 hPa SE 17 km/h 24 km/h 55% 0.00 mm 448.21 W/m2
10:29 32.0 °C 22.0 °C 1013.2 hPa ESE 15 km/h 28 km/h 55% 0.00 mm 438.15 W/m2
10:34 32.0 °C 22.0 °C 1013.2 hPa ENE 14 km/h 20 km/h 55% 0.00 mm 444.54 W/m2
10:39 32.0 °C 22.0 °C 1013.2 hPa ESE 14 km/h 20 km/h 56% 0.00 mm 484.28 W/m2
10:44 32.0 °C 22.0 °C 1012.9 hPa ESE 21 km/h 24 km/h 57% 0.00 mm 483.17 W/m2
10:49 32.0 °C 22.0 °C 1012.9 hPa ESE 20 km/h 28 km/h 56% 0.00 mm 452.86 W/m2
10:54 33.0 °C 22.0 °C 1012.9 hPa East 12 km/h 16 km/h 55% 0.00 mm 502.21 W/m2
10:59 33.0 °C 22.0 °C 1012.9 hPa ESE 13 km/h 16 km/h 55% 0.00 mm 456.95 W/m2
11:04 33.0 °C 22.0 °C 1012.9 hPa ESE 22 km/h 32 km/h 55% 0.00 mm 466.22 W/m2
11:09 33.0 °C 22.0 °C 1012.9 hPa ESE 14 km/h 20 km/h 55% 0.00 mm 459.88 W/m2
11:14 33.0 °C 22.0 °C 1012.5 hPa ESE 18 km/h 28 km/h 55% 0.00 mm 494.89 W/m2
11:19 33.0 °C 22.0 °C 1012.5 hPa ESE 22 km/h 28 km/h 55% 0.00 mm 524.35 W/m2
11:24 32.0 °C 22.0 °C 1012.5 hPa SSW 15 km/h 20 km/h 56% 0.00 mm 272.71 W/m2
11:29 32.0 °C 22.0 °C 1012.5 hPa ESE 25 km/h 32 km/h 58% 0.00 mm 265.05 W/m2
11:34 31.0 °C 22.0 °C 1012.5 hPa East 19 km/h 32 km/h 58% 0.00 mm 486.28 W/m2
11:39 32.0 °C 23.0 °C 1012.5 hPa East 20 km/h 28 km/h 59% 0.00 mm 564.38 W/m2
11:44 32.0 °C 23.0 °C 1012.5 hPa ESE 18 km/h 24 km/h 59% 0.00 mm 565.85 W/m2
11:49 32.0 °C 23.0 °C 1012.5 hPa ESE 17 km/h 24 km/h 60% 0.00 mm 603.90 W/m2
11:54 33.0 °C 23.0 °C 1012.2 hPa NE 13 km/h 20 km/h 59% 0.00 mm 563.60 W/m2
11:59 33.0 °C 23.0 °C 1012.2 hPa ESE 21 km/h 28 km/h 56% 0.00 mm 591.27 W/m2
12:04 32.0 °C 22.0 °C 1012.2 hPa East 23 km/h 32 km/h 57% 0.00 mm 589.41 W/m2
12:09 32.0 °C 22.0 °C 1012.2 hPa ESE 19 km/h 24 km/h 58% 0.00 mm 296.98 W/m2
12:14 32.0 °C 22.0 °C 1012.2 hPa NE 15 km/h 20 km/h 57% 0.00 mm 371.24 W/m2
12:19 32.0 °C 22.0 °C 1011.9 hPa East 14 km/h 24 km/h 56% 0.00 mm 548.92 W/m2
12:24 33.0 °C 22.0 °C 1011.9 hPa NE 16 km/h 24 km/h 55% 0.00 mm 561.22 W/m2
12:29 32.0 °C 22.0 °C 1011.9 hPa West 12 km/h 16 km/h 56% 0.00 mm 565.38 W/m2
12:34 32.0 °C 22.0 °C 1011.5 hPa SE 11 km/h 16 km/h 55% 0.00 mm 568.30 W/m2
12:39 33.0 °C 22.0 °C 1011.9 hPa East 16 km/h 24 km/h 55% 0.00 mm 503.53 W/m2
12:44 32.0 °C 22.0 °C 1011.5 hPa NNE 24 km/h 28 km/h 55% 0.00 mm 532.87 W/m2
12:49 32.0 °C 22.0 °C 1011.5 hPa NNE 19 km/h 28 km/h 57% 0.00 mm 508.94 W/m2
12:54 32.0 °C 22.0 °C 1011.5 hPa NNE 27 km/h 32 km/h 57% 0.00 mm 551.34 W/m2
12:59 32.0 °C 22.0 °C 1011.2 hPa NNE 8 km/h 12 km/h 56% 0.00 mm 586.03 W/m2
13:04 33.0 °C 22.0 °C 1011.2 hPa ENE 15 km/h 24 km/h 56% 0.00 mm 585.59 W/m2
13:09 33.0 °C 22.0 °C 1011.2 hPa ENE 16 km/h 24 km/h 54% 0.00 mm 569.67 W/m2
13:14 33.0 °C 22.0 °C 1011.2 hPa ENE 19 km/h 24 km/h 56% 0.00 mm 214.79 W/m2
13:19 32.0 °C 22.0 °C 1011.2 hPa NNE 20 km/h 24 km/h 56% 0.00 mm 160.60 W/m2
13:24 32.0 °C 22.0 °C 1011.2 hPa NE 18 km/h 24 km/h 57% 0.00 mm 154.26 W/m2
13:29 31.0 °C 22.0 °C 1011.2 hPa NE 16 km/h 24 km/h 57% 0.00 mm 202.98 W/m2
13:34 31.0 °C 22.0 °C 1010.8 hPa NNE 18 km/h 20 km/h 57% 0.00 mm 209.31 W/m2
13:39 31.0 °C 22.0 °C 1011.2 hPa NNE 19 km/h 24 km/h 58% 0.00 mm 198.47 W/m2
13:44 31.0 °C 22.0 °C 1010.8 hPa East 15 km/h 20 km/h 57% 0.00 mm 262.75 W/m2
13:49 32.0 °C 22.0 °C 1010.8 hPa ESE 14 km/h 28 km/h 57% 0.00 mm 376.67 W/m2
13:54 32.0 °C 22.0 °C 1010.8 hPa ENE 15 km/h 20 km/h 56% 0.00 mm 408.92 W/m2
13:59 32.0 °C 22.0 °C 1010.8 hPa East 17 km/h 20 km/h 56% 0.00 mm 526.82 W/m2
14:04 33.0 °C 22.0 °C 1010.5 hPa NE 16 km/h 20 km/h 56% 0.00 mm 479.33 W/m2
14:09 33.0 °C 22.0 °C 1010.5 hPa NE 13 km/h 20 km/h 55% 0.00 mm 486.75 W/m2
14:14 33.0 °C 22.0 °C 1010.5 hPa NNE 20 km/h 24 km/h 55% 0.00 mm 478.13 W/m2
14:19 33.0 °C 22.0 °C 1010.5 hPa North 14 km/h 16 km/h 53% 0.00 mm 467.37 W/m2
14:24 33.0 °C 22.0 °C 1010.2 hPa SE 14 km/h 20 km/h 53% 0.00 mm 466.90 W/m2
14:29 33.0 °C 22.0 °C 1010.2 hPa ESE 18 km/h 24 km/h 53% 0.00 mm 464.36 W/m2
14:34 33.0 °C 22.0 °C 1010.2 hPa SE 17 km/h 32 km/h 52% 0.00 mm 471.92 W/m2
14:39 33.0 °C 22.0 °C 1010.2 hPa NNE 18 km/h 24 km/h 52% 0.00 mm 484.79 W/m2
14:44 33.0 °C 22.0 °C 1010.2 hPa SW 11 km/h 16 km/h 52% 0.00 mm 486.43 W/m2
14:49 33.0 °C 21.0 °C 1010.2 hPa ESE 14 km/h 20 km/h 51% 0.00 mm 501.99 W/m2
14:54 33.0 °C 21.0 °C 1009.8 hPa NNE 17 km/h 24 km/h 54% 0.00 mm 468.93 W/m2
14:59 33.0 °C 22.0 °C 1009.8 hPa East 11 km/h 16 km/h 54% 0.00 mm 460.30 W/m2
15:04 33.0 °C 22.0 °C 1009.8 hPa ENE 21 km/h 24 km/h 52% 0.00 mm 499.93 W/m2
15:09 33.0 °C 22.0 °C 1009.8 hPa ENE 12 km/h 16 km/h 54% 0.00 mm 511.24 W/m2
15:14 33.0 °C 22.0 °C 1009.8 hPa NE 17 km/h 20 km/h 54% 0.00 mm 452.27 W/m2
15:19 32.0 °C 21.0 °C 1009.8 hPa NNE 10 km/h 12 km/h 55% 0.00 mm 179.10 W/m2
15:24 32.0 °C 22.0 °C 1009.8 hPa NE 12 km/h 16 km/h 55% 0.00 mm 113.99 W/m2
15:29 32.0 °C 22.0 °C 1009.8 hPa NNE 17 km/h 20 km/h 55% 0.00 mm 89.08 W/m2
15:34 31.0 °C 21.0 °C 1009.8 hPa NNE 16 km/h 20 km/h 55% 0.00 mm 87.44 W/m2
15:39 31.0 °C 21.0 °C 1009.8 hPa NNE 16 km/h 20 km/h 55% 0.00 mm 71.27 W/m2
15:44 31.0 °C 21.0 °C 1009.8 hPa NNE 17 km/h 20 km/h 56% 0.00 mm 68.00 W/m2
15:49 31.0 °C 21.0 °C 1009.8 hPa NNE 15 km/h 20 km/h 56% 0.00 mm 73.14 W/m2
15:54 31.0 °C 21.0 °C 1009.8 hPa NNE 15 km/h 16 km/h 56% 0.00 mm 71.45 W/m2
15:59 31.0 °C 21.0 °C 1009.8 hPa NNE 12 km/h 20 km/h 56% 0.00 mm 74.16 W/m2
16:04 31.0 °C 21.0 °C 1009.8 hPa North 12 km/h 16 km/h 56% 0.00 mm 187.32 W/m2
16:09 31.0 °C 21.0 °C 1009.8 hPa North 13 km/h 20 km/h 56% 0.00 mm 347.77 W/m2
16:14 32.0 °C 21.0 °C 1009.8 hPa NNW 13 km/h 16 km/h 55% 0.00 mm 364.41 W/m2
16:19 33.0 °C 22.0 °C 1009.8 hPa ENE 8 km/h 12 km/h 55% 0.00 mm 367.40 W/m2
16:24 33.0 °C 22.0 °C 1010.2 hPa NNE 16 km/h 20 km/h 54% 0.00 mm 334.76 W/m2
16:29 32.0 °C 22.0 °C 1009.8 hPa NE 13 km/h 20 km/h 55% 0.00 mm 93.93 W/m2
16:34 31.0 °C 21.0 °C 1009.8 hPa NNE 21 km/h 28 km/h 55% 0.00 mm 77.29 W/m2
16:39 31.0 °C 21.0 °C 1009.8 hPa NNE 22 km/h 28 km/h 55% 0.00 mm 63.68 W/m2
16:44 31.0 °C 21.0 °C 1010.2 hPa NNE 19 km/h 24 km/h 56% 0.00 mm 57.55 W/m2
16:49 31.0 °C 21.0 °C 1010.2 hPa NNE 17 km/h 20 km/h 56% 0.00 mm 237.03 W/m2
16:54 31.0 °C 21.0 °C 1010.2 hPa NE 15 km/h 24 km/h 56% 0.00 mm 235.81 W/m2
16:59 31.0 °C 21.0 °C 1010.2 hPa NNE 18 km/h 24 km/h 55% 0.00 mm 232.63 W/m2
17:04 31.0 °C 21.0 °C 1010.2 hPa North 24 km/h 28 km/h 56% 0.00 mm 211.93 W/m2
17:09 30.0 °C 21.0 °C 1010.5 hPa NNE 15 km/h 16 km/h 57% 0.00 mm 61.72 W/m2
17:14 30.0 °C 21.0 °C 1010.5 hPa North 21 km/h 28 km/h 57% 0.00 mm 54.30 W/m2
17:19 30.0 °C 21.0 °C 1010.5 hPa NNE 23 km/h 28 km/h 58% 0.00 mm 49.40 W/m2
17:24 30.0 °C 21.0 °C 1010.5 hPa NNE 18 km/h 24 km/h 59% 0.00 mm 44.43 W/m2
17:25 30.0 °C 21.0 °C 1010.5 hPa ENE 4 km/h 8 km/h 59% 0.00 mm 39.24 W/m2
17:34 30.0 °C 21.0 °C 1010.8 hPa NE 10 km/h 12 km/h 58% 0.00 mm 34.74 W/m2
17:39 30.0 °C 21.0 °C 1010.8 hPa NNE 22 km/h 24 km/h 58% 0.00 mm 30.09 W/m2
17:44 30.0 °C 21.0 °C 1010.8 hPa NNE 23 km/h 28 km/h 59% 0.00 mm 24.98 W/m2
17:49 29.0 °C 21.0 °C 1010.8 hPa NNE 18 km/h 24 km/h 59% 0.00 mm 19.93 W/m2
17:54 29.0 °C 21.0 °C 1010.8 hPa NNE 15 km/h 16 km/h 59% 0.00 mm 13.11 W/m2
17:55 29.0 °C 20.0 °C 1010.8 hPa NNE 12 km/h 12 km/h 59% 0.00 mm 7.42 W/m2
18:04 29.0 °C 21.0 °C 1010.8 hPa NNE 20 km/h 24 km/h 60% 0.00 mm 3.76 W/m2
18:08 29.0 °C 21.0 °C 1010.8 hPa NNE 15 km/h 20 km/h 63% 0.00 mm 0.22 W/m2
18:14 29.0 °C 21.0 °C 1011.2 hPa North 17 km/h 20 km/h 64% 0.00 mm 0.00 W/m2
18:18 28.0 °C 21.0 °C 1011.2 hPa North 17 km/h 20 km/h 67% 0.00 mm 0.00 W/m2
18:24 28.0 °C 22.0 °C 1011.2 hPa North 18 km/h 20 km/h 69% 0.00 mm 0.00 W/m2
18:29 28.0 °C 22.0 °C 1011.2 hPa NNE 23 km/h 28 km/h 70% 0.00 mm 0.00 W/m2
18:33 27.0 °C 22.0 °C 1011.2 hPa North 21 km/h 24 km/h 71% 0.00 mm 0.00 W/m2
18:39 27.0 °C 21.0 °C 1011.2 hPa North 22 km/h 24 km/h 71% 0.00 mm 0.00 W/m2
18:43 27.0 °C 21.0 °C 1011.2 hPa North 17 km/h 20 km/h 71% 0.00 mm 0.00 W/m2
18:49 27.0 °C 22.0 °C 1011.2 hPa North 15 km/h 20 km/h 72% 0.00 mm 0.00 W/m2
18:54 27.0 °C 22.0 °C 1011.2 hPa North 19 km/h 24 km/h 72% 0.00 mm 0.00 W/m2
18:59 27.0 °C 22.0 °C 1011.2 hPa North 17 km/h 20 km/h 73% 0.00 mm 0.00 W/m2
19:02 27.0 °C 22.0 °C 1011.5 hPa North 9 km/h 12 km/h 73% 0.00 mm 0.00 W/m2
19:14 27.0 °C 21.0 °C 1011.5 hPa North 1 km/h 4 km/h 73% 0.00 mm 0.00 W/m2
19:19 27.0 °C 21.0 °C 1011.5 hPa North 11 km/h 12 km/h 73% 0.00 mm 0.00 W/m2
19:24 27.0 °C 21.0 °C 1011.5 hPa NNE 10 km/h 12 km/h 73% 0.00 mm 0.00 W/m2
19:29 27.0 °C 21.0 °C 1011.5 hPa NNE 13 km/h 16 km/h 73% 0.00 mm 0.00 W/m2
19:34 27.0 °C 21.0 °C 1011.9 hPa NNE 10 km/h 12 km/h 73% 0.00 mm 0.00 W/m2
19:38 27.0 °C 21.0 °C 1011.9 hPa NNE 8 km/h 12 km/h 73% 0.00 mm 0.00 W/m2
19:44 27.0 °C 21.0 °C 1011.5 hPa NNE 10 km/h 12 km/h 73% 0.00 mm 0.00 W/m2
19:49 27.0 °C 21.0 °C 1011.9 hPa North 10 km/h 12 km/h 73% 0.00 mm 0.00 W/m2
19:54 27.0 °C 22.0 °C 1011.9 hPa NNE 12 km/h 16 km/h 74% 0.00 mm 0.00 W/m2
19:58 27.0 °C 22.0 °C 1011.9 hPa NNE 15 km/h 16 km/h 74% 0.00 mm 0.00 W/m2
20:04 26.0 °C 21.0 °C 1012.2 hPa North 10 km/h 12 km/h 74% 0.00 mm 0.00 W/m2
20:09 26.0 °C 21.0 °C 1012.2 hPa North 4 km/h 4 km/h 74% 0.00 mm 0.00 W/m2
20:14 26.0 °C 21.0 °C 1012.2 hPa NNE 12 km/h 16 km/h 74% 0.00 mm 0.00 W/m2
20:19 26.0 °C 21.0 °C 1012.2 hPa NNE 13 km/h 16 km/h 74% 0.00 mm 0.00 W/m2
20:24 26.0 °C 21.0 °C 1012.2 hPa NNE 6 km/h 8 km/h 74% 0.00 mm 0.00 W/m2
20:29 26.0 °C 21.0 °C 1012.2 hPa North 7 km/h 12 km/h 74% 0.00 mm 0.00 W/m2
20:34 26.0 °C 21.0 °C 1012.2 hPa NNE 8 km/h 8 km/h 74% 0.00 mm 0.00 W/m2
20:39 26.0 °C 21.0 °C 1012.5 hPa NNE 11 km/h 12 km/h 74% 0.00 mm 0.00 W/m2
20:44 26.0 °C 21.0 °C 1012.5 hPa NNE 9 km/h 12 km/h 74% 0.00 mm 0.00 W/m2
20:48 26.0 °C 21.0 °C 1012.5 hPa NNE 12 km/h 12 km/h 74% 0.00 mm 0.00 W/m2
20:54 26.0 °C 21.0 °C 1012.5 hPa NNE 9 km/h 12 km/h 74% 0.00 mm 0.00 W/m2
20:59 26.0 °C 21.0 °C 1012.5 hPa NNE 7 km/h 8 km/h 74% 0.00 mm 0.00 W/m2
21:04 26.0 °C 22.0 °C 1012.9 hPa NNE 6 km/h 8 km/h 75% 0.00 mm 0.00 W/m2
21:09 26.0 °C 22.0 °C 1012.9 hPa NNE 5 km/h 8 km/h 75% 0.00 mm 0.00 W/m2
21:14 26.0 °C 22.0 °C 1012.5 hPa NNE 8 km/h 8 km/h 75% 0.00 mm 0.00 W/m2
21:19 26.0 °C 22.0 °C 1012.5 hPa NNE 7 km/h 8 km/h 75% 0.00 mm 0.00 W/m2
21:24 26.0 °C 22.0 °C 1012.5 hPa NNE 6 km/h 8 km/h 75% 0.00 mm 0.00 W/m2
21:29 26.0 °C 22.0 °C 1012.5 hPa North 10 km/h 12 km/h 75% 0.00 mm 0.00 W/m2
21:34 26.0 °C 22.0 °C 1012.5 hPa NNE 7 km/h 8 km/h 75% 0.00 mm 0.00 W/m2
21:39 26.0 °C 22.0 °C 1012.5 hPa North 7 km/h 8 km/h 75% 0.00 mm 0.00 W/m2
21:44 26.0 °C 22.0 °C 1012.5 hPa North 8 km/h 8 km/h 75% 0.00 mm 0.00 W/m2
21:49 26.0 °C 22.0 °C 1012.5 hPa NNE 9 km/h 12 km/h 75% 0.00 mm 0.00 W/m2
21:54 26.0 °C 21.0 °C 1012.5 hPa NNE 11 km/h 12 km/h 75% 0.00 mm 0.00 W/m2
21:59 26.0 °C 22.0 °C 1012.5 hPa North 6 km/h 8 km/h 75% 0.00 mm 0.00 W/m2
22:04 26.0 °C 21.0 °C 1012.2 hPa North 9 km/h 12 km/h 75% 0.00 mm 0.00 W/m2
22:09 26.0 °C 21.0 °C 1012.5 hPa NNE 9 km/h 12 km/h 75% 0.00 mm 0.00 W/m2
22:14 26.0 °C 21.0 °C 1012.5 hPa NNE 6 km/h 8 km/h 75% 0.00 mm 0.00 W/m2
22:19 26.0 °C 21.0 °C 1012.5 hPa NNE 6 km/h 8 km/h 75% 0.00 mm 0.00 W/m2
22:24 26.0 °C 21.0 °C 1012.5 hPa NE 3 km/h 4 km/h 75% 0.00 mm 0.00 W/m2
22:28 26.0 °C 21.0 °C 1012.5 hPa NNE 3 km/h 8 km/h 75% 0.00 mm 0.00 W/m2
22:32 26.0 °C 21.0 °C 1012.5 hPa Calm     75% 0.00 mm 0.00 W/m2
22:39 26.0 °C 21.0 °C 1012.5 hPa North 9 km/h 12 km/h 75% 0.00 mm 0.00 W/m2
22:44 26.0 °C 21.0 °C 1012.5 hPa NNE 5 km/h 8 km/h 75% 0.00 mm 0.00 W/m2
22:45 26.0 °C 21.0 °C 1012.5 hPa Calm   4 km/h 76% 0.00 mm 0.00 W/m2
22:54 26.0 °C 21.0 °C 1012.5 hPa Calm     75% 0.00 mm 0.00 W/m2
22:59 26.0 °C 21.0 °C 1012.5 hPa North 1 km/h 4 km/h 75% 0.00 mm 0.00 W/m2
23:04 26.0 °C 21.0 °C 1012.5 hPa NNE 3 km/h 4 km/h 75% 0.00 mm 0.00 W/m2
23:09 26.0 °C 21.0 °C 1012.5 hPa NE 4 km/h 4 km/h 76% 0.00 mm 0.00 W/m2
23:14 26.0 °C 21.0 °C 1012.5 hPa NE 4 km/h 8 km/h 75% 0.00 mm 0.00 W/m2
23:19 26.0 °C 21.0 °C 1012.2 hPa NE 5 km/h 8 km/h 75% 0.00 mm 0.00 W/m2
23:24 26.0 °C 21.0 °C 1012.5 hPa Calm   4 km/h 76% 0.00 mm 0.00 W/m2
23:29 26.0 °C 21.0 °C 1012.5 hPa Calm     76% 0.00 mm 0.00 W/m2
23:34 26.0 °C 21.0 °C 1012.2 hPa Calm   4 km/h 76% 0.00 mm 0.00 W/m2
23:37 26.0 °C 21.0 °C 1012.2 hPa Calm     76% 0.00 mm 0.00 W/m2
23:49 26.0 °C 21.0 °C 1012.5 hPa Calm     76% 0.00 mm 0.00 W/m2
23:54 26.0 °C 21.0 °C 1012.2 hPa Calm     76% 0.00 mm 0.00 W/m2
23:58 26.0 °C 21.0 °C 1012.2 hPa Calm     76% 0.00 mm 0.00 W/m2
PIMOHWEATHER Philippines
Compliments of Weather Underground - 2 mb